Location: Town of Saratoga
(43.0654°N, 73.6496°W)
Time: 20:23:20
(UTC+00:00)

Tiangong - Visible Passes

Search period start: 30 November 2023 00:00
Search period end: 10 December 2023 00:00
Orbit: 374 x 384 km, 41.5° (Epoch: 30 November)

Date Brightness Start Highest point End Pass type
(mag) Time Alt. Az. Time Alt. Az. Time Alt. Az.
30 Nov -0.7 22:44:49 10° W 22:47:44 34° SSW 22:49:45 16° SE visible
01 Dec 0.5 23:20:28 10° WSW 23:22:27 16° SSW 23:23:39 13° S visible
02 Dec 0.1 22:18:18 10° W 22:20:56 24° SSW 22:23:34 10° SSE visible
03 Dec 1.3 22:55:13 10° SW 22:55:23 10° SSW 22:55:33 10° SSW visible
04 Dec 0.8 21:51:37 10° WSW 21:53:44 17° SSW 21:55:52 10° SSE visible
